This is the latest recevied weather packets stored in our database for station/object DL3MEB-6. If no packets are shown the sender has not sent any weather packets the latest 10 day(s).
| Time | Temp. | Humidity | Pressure | Rain* | Wind** | Luminosity | Snow |
|---|---|---|---|---|---|---|---|
| 1778232377 | 15° C | 67% | 1016.3 hPa | 0 mm | - | - | - |
| 1778231474 | 14.44° C | 69% | 1016.3 hPa | 0 mm | - | - | - |
| 1778230565 | 13.89° C | 72% | 1016.5 hPa | 0 mm | - | - | - |
| 1778229664 | 13.33° C | 75% | 1016.4 hPa | 0 mm | - | - | - |
| 1778228763 | 12.78° C | 76% | 1016.5 hPa | 0 mm | - | - | - |
| 1778227845 | 12.22° C | 80% | 1016.4 hPa | 0 mm | - | - | - |
| 1778226939 | 11.67° C | 82% | 1016.5 hPa | 0 mm | - | - | - |
| 1778226033 | 11.11° C | 83% | 1016.5 hPa | 0 mm | - | - | - |
| 1778225729 | 11.11° C | 85% | 1016.5 hPa | 0 mm | - | - | - |
| 1778225133 | 10.56° C | 86% | 1016.7 hPa | 0 mm | - | - | - |
| 1778224223 | 10° C | 89% | 1016.6 hPa | 0 mm | - | - | - |
| 1778223308 | 10° C | 91% | 1016.7 hPa | 0 mm | - | - | - |
| 1778222401 | 9.44° C | 92% | 1016.6 hPa | 0 mm | - | - | - |
| 1778221501 | 8.89° C | 94% | 1016.6 hPa | 0 mm | - | - | - |
| 1778220592 | 8.33° C | 95% | 1016.4 hPa | 0 mm | - | - | - |
| 1778219689 | 8.33° C | 96% | 1016.2 hPa | 0 mm | - | - | - |
| 1778218789 | 7.78° C | 96% | 1016.2 hPa | 0 mm | - | - | - |
| 1778217889 | 7.22° C | 96% | 1016.4 hPa | 0 mm | - | - | - |
| 1778216989 | 6.67° C | 95% | 1016.1 hPa | 0 mm | - | - | - |
| 1778216081 | 6.67° C | 95% | 1016 hPa | 0 mm | - | - | - |
| 1778215174 | 6.11° C | 93% | 1015.9 hPa | 0 mm | - | - | - |
| 1778214268 | 6.11° C | 92% | 1015.7 hPa | 0 mm | - | - | - |
| 1778213364 | 6.11° C | 92% | 1015.5 hPa | 0 mm | - | - | - |
| 1778212453 | 6.67° C | 92% | 1015.5 hPa | 0 mm | - | - | - |
| 1778211545 | 6.67° C | 92% | 1015.3 hPa | 0 mm | - | - | - |
* Rain latest hour (hover to see other rain measurements)
** Current wind speed in m/s (hover to see current wind gust speed)